This demonstration page uses our WeatherBlox Daily Observations layout. Learn more.

Left ArrowRight Arrow

34.16533, -84.80231

Hourly Observations for December 7, 2022

Temp ( °F °C ) Dew Point ( °F °C ) Humidity (%) Winds ( mph kmh ) Pressure ( in mb ) Visibility ( mi km ) Precip ( " mm )
12:15 am 00:15 Cloudy 54 12 54 12 100 100 E 6 9 30.24 1024 7 11 0.00 0.00
12:35 am 00:35 Cloudy with Light Rain 54 12 54 12 100 100 Calm 30.24 1024 3 4 0.00 0.00
12:55 am 00:55 Cloudy with Mist and Fog 54 12 54 12 100 100 Calm 30.24 1024 5 8 0.03 0.76
1:15 am 01:15 Cloudy with Mist and Fog 54 12 54 12 100 100 Calm 30.24 1024 5 8 0.00 0.00
1:35 am 01:35 Cloudy with Mist and Fog 54 12 54 12 100 100 ESE 5 7 30.23 1024 5 8 0.00 0.00
1:55 am 01:55 Cloudy with Mist and Fog 55 13 54 12 94 94 Calm 30.24 1024 5 8 0.00 0.00
2:15 am 02:15 Cloudy with Mist and Fog 55 13 54 12 94 94 Calm 30.23 1024 5 8 0.00 0.00
2:35 am 02:35 Cloudy with Mist and Fog 55 13 54 12 94 94 E 3 6 30.23 1024 4 6 0.00 0.00
2:55 am 02:55 Cloudy with Mist and Fog 55 13 54 12 94 94 Calm 30.23 1024 4 6 0.00 0.00
3:15 am 03:15 Cloudy with Mist and Fog 55 13 54 12 94 94 Calm 30.23 1024 4 6 0.00 0.00
3:35 am 03:35 Cloudy with Mist and Fog 55 13 54 12 94 94 Calm 30.24 1024 4 6 0.00 0.00
3:55 am 03:55 Cloudy with Mist and Fog 55 13 55 13 100 100 E 8 13 30.23 1024 4 6 0.00 0.00
4:15 am 04:15 Cloudy with Mist and Fog 55 13 55 13 100 100 Calm 30.23 1024 5 8 0.00 0.00
4:35 am 04:35 Cloudy with Mist and Fog 55 13 55 13 100 100 E 5 7 30.23 1024 5 8 0.00 0.00
4:55 am 04:55 Cloudy with Mist and Fog 55 13 55 13 100 100 E 6 9 30.23 1024 5 8 0.00 0.00
5:15 am 05:15 Cloudy with Mist and Fog 55 13 55 13 100 100 E 6 9 30.23 1024 5 8 0.00 0.00
5:35 am 05:35 Cloudy with Mist and Fog 55 13 55 13 100 100 Calm 30.24 1024 3 5 0.00 0.00
5:55 am 05:55 Cloudy with Mist and Fog 55 13 55 13 100 100 ENE 6 9 30.24 1024 3 5 0.00 0.00
6:15 am 06:15 Cloudy with Mist and Fog 55 13 55 13 100 100 E 6 9 30.23 1024 3 5 0.00 0.00
6:35 am 06:35 Cloudy with Mist and Fog 57 14 55 13 94 94 ENE 6 9 30.23 1024 3 4 0.00 0.00
6:55 am 06:55 Cloudy with Mist and Fog 57 14 57 14 100 100 ENE 6 9 30.24 1024 3 5 0.00 0.00
7:15 am 07:15 Cloudy with Mist and Fog 57 14 57 14 100 100 E 7 11 30.25 1024 3 5 0.00 0.00
7:35 am 07:35 Cloudy with Mist and Fog 57 14 57 14 100 100 E 6 9 30.25 1024 3 5 0.00 0.00
7:55 am 07:55 Cloudy with Mist and Fog 57 14 57 14 100 100 E 5 7 30.26 1025 3 4 0.00 0.00
8:15 am 08:15 Cloudy with Mist and Fog 57 14 57 14 100 100 E 5 7 30.26 1025 3 5 0.00 0.00
8:35 am 08:35 Cloudy with Mist and Fog 59 15 57 14 94 94 E 7 11 30.26 1025 4 6 0.00 0.00
8:55 am 08:55 Cloudy with Mist and Fog 59 15 59 15 100 100 Calm 30.28 1025 4 6 0.00 0.00
9:15 am 09:15 Cloudy with Mist and Fog 59 15 59 15 100 100 E 6 9 30.28 1025 4 6 0.00 0.00
9:35 am 09:35 Cloudy with Mist and Fog 59 15 59 15 100 100 ENE 5 7 30.29 1026 3 5 0.00 0.00
9:55 am 09:55 Cloudy with Mist and Fog 59 15 59 15 100 100 E 6 9 30.28 1025 4 6 0.00 0.00
10:15 am 10:15 Cloudy with Mist and Fog 61 16 61 16 100 100 ENE 3 6 30.28 1025 4 6 0.00 0.00
10:35 am 10:35 Cloudy with Mist and Fog 63 17 63 17 100 100 Calm 30.28 1025 5 8 0.00 0.00
10:55 am 10:55 Cloudy 64 18 63 17 94 94 Calm 30.28 1025 7 11 0.00 0.00
11:15 am 11:15 Cloudy 66 19 64 18 94 94 Calm 30.27 1025 8 13 0.00 0.00
11:35 am 11:35 Cloudy 68 20 66 19 94 94 S 6 9 30.26 1025 10 16 0.00 0.00
11:55 am 11:55 Cloudy 70 21 66 19 88 88 SSW 5 7 30.25 1024 10 16 0.00 0.00
12:15 pm 12:15 Cloudy 70 21 66 19 88 88 Calm 30.24 1024 10 16 0.00 0.00
12:35 pm 12:35 Cloudy 72 22 66 19 83 83 SW 5 7 30.24 1024 10 16 0.00 0.00
12:55 pm 12:55 Cloudy 70 21 66 19 88 88 Calm 30.24 1024 10 16 0.00 0.00
1:15 pm 13:15 Cloudy 72 22 64 18 78 78 WSW 5 7 30.23 1024 10 16 0.00 0.00
1:35 pm 13:35 Cloudy 72 22 66 19 83 83 WSW 7 11 30.23 1024 10 16 0.00 0.00
1:55 pm 13:55 Cloudy 72 22 64 18 78 78 VRB 5 7 30.22 1023 10 16 0.00 0.00
2:15 pm 14:15 Cloudy 72 22 64 18 78 78 WSW 6 9 30.22 1023 10 16 0.00 0.00
2:35 pm 14:35 Cloudy 72 22 64 18 78 78 WSW 6 9 30.22 1023 10 16 0.00 0.00
2:55 pm 14:55 Cloudy 72 22 64 18 78 78 WSW 7 11 30.22 1023 10 16 0.00 0.00
3:15 pm 15:15 Cloudy 72 22 64 18 78 78 W 7 11 30.22 1023 10 16 0.00 0.00
3:35 pm 15:35 Cloudy with Light Rain 68 20 66 19 94 94 WSW 5 7 30.23 1024 3 4 0.00 0.00
3:55 pm 15:55 Cloudy with Rain 68 20 66 19 94 94 WNW 5 7 30.24 1024 1 2 0.06 1.52
4:15 pm 16:15 Cloudy with Rain 68 20 66 19 94 94 W 7 11 30.24 1024 2 2 0.00 0.00
4:35 pm 16:35 Cloudy 68 20 66 19 94 94 Calm 30.24 1024 7 11 0.00 0.00
4:55 pm 16:55 Mostly Cloudy with Mist and Fog 68 20 66 19 94 94 Calm 30.24 1024 6 10 0.20 5.08
5:15 pm 17:15 Cloudy with Mist and Fog 66 19 66 19 100 100 Calm 30.24 1024 5 8 0.00 0.00
5:35 pm 17:35 Cloudy with Light Rain 66 19 66 19 100 100 Calm 30.24 1024 5 8 0.00 0.00
5:55 pm 17:55 Cloudy with Mist and Fog 66 19 66 19 100 100 Calm 30.24 1024 6 10 0.01 0.25
6:15 pm 18:15 Cloudy with Mist and Fog 66 19 66 19 100 100 Calm 30.25 1025 6 10 0.00 0.00
6:35 pm 18:35 Cloudy with Mist and Fog 66 19 66 19 100 100 Calm 30.27 1025 4 6 0.00 0.00
6:55 pm 18:55 Cloudy with Mist and Fog 66 19 64 18 94 94 Calm 30.27 1025 1 1 0.00 0.00
7:15 pm 19:15 Cloudy with Mist and Fog 66 19 66 19 100 100 Calm 30.27 1025 4 6 0.00 0.00
7:35 pm 19:35 Cloudy with Mist and Fog 66 19 66 19 100 100 Calm 30.27 1025 6 10 0.00 0.00
7:55 pm 19:55 Cloudy with Mist and Fog 66 19 66 19 100 100 Calm 30.27 1025 6 10 0.01 0.25
8:15 pm 20:15 Cloudy with Fog 64 18 64 18 100 100 Calm 30.28 1025 1 1 0.00 0.00
8:35 pm 20:35 Cloudy with Fog 64 18 63 17 94 94 Calm 30.28 1025 0 0 0.00 0.00
8:55 pm 20:55 Cloudy with Fog 64 18 64 18 100 100 Calm 30.28 1025 0 0 0.00 0.00
9:15 pm 21:15 Cloudy with Fog 64 18 64 18 100 100 Calm 30.29 1026 1 1 0.00 0.00
9:35 pm 21:35 Cloudy with Mist and Fog 64 18 64 18 100 100 Calm 30.28 1025 1 1 0.00 0.00
9:55 pm 21:55 Cloudy with Mist and Fog 64 18 64 18 100 100 Calm 30.28 1025 2 3 0.00 0.00
10:15 pm 22:15 Cloudy with Mist and Fog 64 18 64 18 100 100 Calm 30.28 1025 1 1 0.00 0.00
10:35 pm 22:35 Cloudy with Mist and Fog 64 18 64 18 100 100 Calm 30.28 1025 1 1 0.00 0.00
10:55 pm 22:55 Cloudy with Fog 63 17 63 17 100 100 Calm 30.28 1025 0 0 0.00 0.00
11:15 pm 23:15 Cloudy with Fog 63 17 63 17 100 100 Calm 30.27 1025 0 0 0.00 0.00
11:35 pm 23:35 Cloudy with Fog 63 17 63 17 100 100 Calm 30.27 1025 0 0 0.00 0.00
11:55 pm 23:55 Cloudy with Fog 63 17 63 17 100 100 Calm 30.27 1025 1 1 0.00 0.00

Powered by AerisWeather